sat.trackr.live / text

‹ back to catalog

STARLINK-31717

NORAD 59385 · 2024-062M

PAYLOAD ACTIVE UNKNOWN

§ Identity

Operator
Country
US
Launch date
2024-04-02
Launch site
AFWTR
Launch vehicle
Mass (kg)
RCS (m²)

Purposes: comms

External: N2YO · Heavens-Above · Gunter

§ Orbital elements

Epoch: 2026-05-24T17:56:48.785568Z

Period
94.08 min
Inclination
53.1607°
Eccentricity
0.0001116
Mean motion
15.30672998 rev/d
Perigee alt
473.0 km
Apogee alt
474.6 km
Semi-major
6,851.9 km
B*
2.1227e-3
RAAN
262.5632°
Arg perigee
109.0158°
Mean anomaly
251.0964°
Rev number
12,130

§ Raw data

STARLINK-317171 59385U 24062M   26144.74778687  .00063985  00000+0  21227-2 0  99912 59385  53.1607 262.5632 0001116 109.0158 251.0964 15.30672998121307

JSON: /api/v1/satellites/59385 · /tle

For live sub-satellite position, see the globe view (requires WebGL).

§ Visibility from observer

Set your observer location to see the next 7 days of passes ≥ 10°. The values pass through the URL so the page stays shareable.

No JS? Fill the form by hand. The geolocation button needs JavaScript.